This is the latest recevied weather packets stored in our database for station/object AB8Y-13. If no packets are shown the sender has not sent any weather packets the latest 10 day(s).
| Time | Temp. | Humidity | Pressure | Rain* | Wind** | Luminosity | Snow |
|---|---|---|---|---|---|---|---|
| 1777649725 | 8.89° C | 54% | 1014.6 hPa | 0 mm | - | 1028 W/m² | - |
| 1777649420 | 8.33° C | 55% | 1014.7 hPa | 0 mm | - | 499 W/m² | - |
| 1777649118 | 8.89° C | 55% | 1014.7 hPa | 0 mm | - | 840 W/m² | - |
| 1777648815 | 8.33° C | 59% | 1014.6 hPa | 0 mm | - | 480 W/m² | - |
| 1777648512 | 8.89° C | 59% | 1014.9 hPa | 0 mm | - | 364 W/m² | - |
| 1777648209 | 8.89° C | 61% | 1014.6 hPa | 0 mm | - | 533 W/m² | - |
| 1777647904 | 8.33° C | 56% | 1014.7 hPa | 0 mm | - | 551 W/m² | - |
| 1777647601 | 7.78° C | 59% | 1014.8 hPa | 0 mm | - | 372 W/m² | - |
| 1777647297 | 7.78° C | 60% | 1014.8 hPa | 0 mm | - | 371 W/m² | - |
| 1777646995 | 7.78° C | 63% | 1014.5 hPa | 0 mm | - | 379 W/m² | - |
| 1777646690 | 7.78° C | 63% | 1014.9 hPa | 0 mm | - | 353 W/m² | - |
| 1777646387 | 7.78° C | 66% | 1014.7 hPa | 0 mm | - | 365 W/m² | - |
| 1777646083 | 7.78° C | 66% | 1014.8 hPa | 0 mm | - | 376 W/m² | - |
| 1777645779 | 7.78° C | 60% | 1014.7 hPa | 0 mm | - | 356 W/m² | - |
| 1777645477 | 7.22° C | 61% | 1014.7 hPa | 0 mm | - | 312 W/m² | - |
| 1777645173 | 7.78° C | 63% | 1014.7 hPa | 0 mm | - | 285 W/m² | - |
| 1777644869 | 7.78° C | 62% | 1014.6 hPa | 0 mm | - | 338 W/m² | - |
| 1777644567 | 7.78° C | 61% | 1014.8 hPa | 0 mm | - | 457 W/m² | - |
| 1777644262 | 7.22° C | 64% | 1014.6 hPa | 0 mm | - | 442 W/m² | - |
| 1777643959 | 7.22° C | 63% | 1014.8 hPa | 0 mm | - | 381 W/m² | - |
| 1777643657 | 7.22° C | 66% | 1014.8 hPa | 0 mm | - | 410 W/m² | - |
| 1777643354 | 7.22° C | 65% | 1014.9 hPa | 0 mm | - | 341 W/m² | - |
| 1777643050 | 6.67° C | 66% | 1014.8 hPa | 0 mm | - | 304 W/m² | - |
| 1777642746 | 6.67° C | 67% | 1014.7 hPa | 0 mm | - | 316 W/m² | - |
| 1777642444 | 6.67° C | 67% | 1014.6 hPa | 0 mm | - | 340 W/m² | - |
* Rain latest hour (hover to see other rain measurements)
** Current wind speed in m/s (hover to see current wind gust speed)